Change the Weather History Date:

Wednesday, September 18, 2013

  Actual Average Record
Temperature  
Mean Temperature 80 °F 83 °F  
Max Temperature 85 °F 89 °F 96 °F (1955)
Min Temperature 75 °F 77 °F 68 °F (1985)
Degree Days  
Heating Degree Days 0 0  
Month to date heating degree days 0 0  
Since 1 July heating degree days 0 0  
Cooling Degree Days 15 18  
Month to date cooling degree days 309 330  
Year to date cooling degree days 3356 3496  
Growing Degree Days 30 (Base 50)    
Moisture  
Dew Point 74 °F    
Average Humidity 82    
Maximum Humidity 94    
Minimum Humidity 70    
Precipitation  
Precipitation 0.04 in 0.31 in 4.20 in (1926)
Month to date precipitation 2.41 5.16  
Year to date precipitation 59.45 46.23  
Snow  
Snow 0.00 in - - ()
Month to date snowfall 0.0  
Since 1 July snowfall 0.0  
Since 1 September snowfall 0.0  
Snow Depth 0.00 in    
Sea Level Pressure  
Sea Level Pressure 29.97 in    
Wind  
Wind Speed 5 mph (ENE)    
Max Wind Speed 13 mph    
Max Gust Speed 17 mph    
Visibility 9 miles    
Events Rain , Thunderstorm    
T = Trace of Precipitation, MM = Missing Value Source: NWS Daily Summary

Daily Weather History Graph

Daily Weather History Graph

Search for Another Location

Airport or City:

Trip Planner

Search our weather history database for the weather conditions in past years. The results will help you decide how hot, cold, wet, or windy it might be!

Date:

Astronomy

Sep. 18, 2013 Rise Set
Actual Time 7:07 AM EDT 7:21 PM EDT
Civil Twilight 6:44 AM EDT 7:44 PM EDT
Nautical Twilight 6:17 AM EDT 8:11 PM EDT
Astronomical Twilight 5:50 AM EDT 8:38 PM EDT
Moon 6:44 PM EDT (9/18) 6:10 AM EDT (9/18)
Length of Visible Light 12h 59m
Length of Day
12h 13m
Waxing Gibbous, 99% of the Moon is Illuminated
Sep 18
Waxing Gibbous
Sep 19
Full
Sep 26
Last Quarter
Oct 4
New
Oct 11
First Quarter

Hourly Weather History & Observations

Time (EDT) Temp. Heat Index Dew Point Humidity Pressure Visibility Wind Dir Wind Speed Gust Speed Precip Events Conditions
12:53 AM 81.0 °F 86.2 °F 73.9 °F 79% 29.96 in 10.0 mi East 6.9 mph - N/A   Scattered Clouds
1:53 AM 80.1 °F 85.1 °F 75.0 °F 85% 29.94 in 10.0 mi East 3.5 mph - N/A   Partly Cloudy
2:53 AM 79.0 °F - 75.0 °F 88% 29.93 in 10.0 mi Calm Calm - N/A   Partly Cloudy
3:53 AM 78.1 °F - 75.0 °F 90% 29.91 in 10.0 mi Calm Calm - N/A   Scattered Clouds
4:53 AM 78.1 °F - 75.0 °F 90% 29.92 in 10.0 mi Calm Calm - N/A   Scattered Clouds
5:53 AM 78.1 °F - 75.9 °F 93% 29.93 in 10.0 mi Calm Calm - N/A   Scattered Clouds
6:36 AM 78.8 °F - 75.2 °F 89% 29.94 in 9.0 mi SSW 4.6 mph - N/A   Mostly Cloudy
6:53 AM 75.9 °F - 73.0 °F 91% 29.94 in 8.0 mi SSW 6.9 mph - N/A   Mostly Cloudy
7:15 AM 75.2 °F - 73.4 °F 94% 29.95 in 2.0 mi SE 3.5 mph - 0.00 in Rain Light Rain
7:29 AM 75.2 °F - 73.4 °F 94% 29.95 in 3.0 mi Variable 4.6 mph - 0.02 in Rain Light Rain
7:53 AM 75.9 °F - 73.9 °F 94% 29.96 in 10.0 mi NW 3.5 mph - 0.03 in   Mostly Cloudy
8:53 AM 77.0 °F - 73.9 °F 90% 29.99 in 10.0 mi Calm Calm - 0.01 in   Mostly Cloudy
8:55 AM 77.0 °F - 73.4 °F 89% 29.99 in 10.0 mi North 3.5 mph - N/A Thunderstorm Thunderstorm
9:35 AM 75.2 °F - 73.4 °F 94% 30.00 in 10.0 mi North 3.5 mph - 0.00 in   Mostly Cloudy
9:53 AM 75.9 °F - 73.9 °F 94% 30.00 in 10.0 mi NE 3.5 mph - 0.00 in   Mostly Cloudy
10:53 AM 80.1 °F 84.5 °F 73.9 °F 81% 30.00 in 10.0 mi ENE 10.4 mph - N/A   Scattered Clouds
11:53 AM 82.0 °F 88.6 °F 75.0 °F 79% 29.99 in 10.0 mi ENE 9.2 mph - N/A   Scattered Clouds
12:53 PM 82.9 °F 90.2 °F 75.0 °F 77% 29.98 in 10.0 mi East 11.5 mph - N/A   Mostly Cloudy
1:53 PM 84.0 °F 91.9 °F 75.0 °F 74% 29.97 in 10.0 mi East 9.2 mph - N/A   Partly Cloudy
2:53 PM 84.9 °F 92.1 °F 73.9 °F 69% 29.96 in 10.0 mi ENE 10.4 mph - N/A   Partly Cloudy
3:53 PM 84.0 °F 91.9 °F 75.0 °F 74% 29.95 in 10.0 mi ENE 8.1 mph - N/A   Partly Cloudy
4:53 PM 82.0 °F 87.9 °F 73.9 °F 76% 29.95 in 10.0 mi East 5.8 mph - N/A   Partly Cloudy
5:53 PM 82.0 °F 87.9 °F 73.9 °F 76% 29.95 in 10.0 mi ENE 8.1 mph - N/A   Partly Cloudy
6:53 PM 82.0 °F 87.4 °F 73.0 °F 74% 29.96 in 10.0 mi NE 5.8 mph - N/A   Partly Cloudy
7:53 PM 81.0 °F 86.2 °F 73.9 °F 79% 29.97 in 10.0 mi ENE 4.6 mph - N/A   Partly Cloudy
8:53 PM 82.0 °F 87.4 °F 73.0 °F 74% 30.00 in 10.0 mi ENE 3.5 mph - N/A   Scattered Clouds
9:53 PM 77.0 °F - 73.0 °F 88% 30.02 in 10.0 mi WNW 8.1 mph - N/A   Mostly Cloudy
10:53 PM 75.9 °F - 72.0 °F 87% 30.01 in 10.0 mi NNW 3.5 mph - N/A   Partly Cloudy
11:53 PM 75.9 °F - 72.0 °F 87% 29.99 in 10.0 mi North 4.6 mph - N/A   Partly Cloudy